Time,TemperatureF,DewpointF,PressureIn,WindDirection,WindDirectionDegrees,WindSpeedMPH,WindSpeedGustMPH,Humidity,HourlyPrecipIn,Conditions,Clouds,dailyrainin,SoftwareType,DateUTC
2013-03-29 00:23:00,51.0,46.0,-100.00,North,352,3.0,-999.0,83,0.00,,,-99.99,,2013-03-29 05:23:00,
2013-03-29 00:33:00,51.0,46.0,-100.00,North,352,3.0,-999.0,83,0.00,,,-99.99,,2013-03-29 05:33:00,
2013-03-29 00:43:00,51.0,46.0,-100.00,North,352,3.0,-999.0,83,0.00,,,-99.99,,2013-03-29 05:43:00,
2013-03-29 01:23:00,50.0,46.0,-100.00,NNW,334,1.0,-999.0,89,0.00,,,-99.99,,2013-03-29 06:23:00,
2013-03-29 01:32:00,50.0,46.0,-100.00,NNW,334,1.0,-999.0,89,0.00,,,-99.99,,2013-03-29 06:32:00,
2013-03-29 01:42:00,50.0,46.0,-100.00,NNW,334,1.0,-999.0,89,0.00,,,-99.99,,2013-03-29 06:42:00,
2013-03-29 02:22:00,49.0,46.0,-100.00,North,4,3.0,-999.0,89,0.00,,,-99.99,,2013-03-29 07:22:00,
2013-03-29 02:32:00,49.0,46.0,-100.00,North,4,3.0,-999.0,89,0.00,,,-99.99,,2013-03-29 07:32:00,
2013-03-29 02:42:00,49.0,46.0,-100.00,North,4,3.0,-999.0,89,0.00,,,-99.99,,2013-03-29 07:42:00,
2013-03-29 03:22:00,47.0,46.0,-100.00,North,8,2.0,-999.0,95,0.00,,,-99.99,,2013-03-29 08:22:00,
2013-03-29 03:32:00,47.0,46.0,-100.00,North,8,2.0,-999.0,95,0.00,,,-99.99,,2013-03-29 08:32:00,
2013-03-29 03:42:00,47.0,46.0,-100.00,North,8,2.0,-999.0,95,0.00,,,-99.99,,2013-03-29 08:42:00,
2013-03-29 04:22:00,47.0,-99.9,-100.00,NE,36,5.0,-999.0,101,0.00,,,-99.99,,2013-03-29 09:22:00,
2013-03-29 04:33:00,47.0,-99.9,-100.00,NE,36,5.0,-999.0,101,0.00,,,-99.99,,2013-03-29 09:33:00,
2013-03-29 04:43:00,47.0,-99.9,-100.00,NE,36,5.0,-999.0,101,0.00,,,-99.99,,2013-03-29 09:43:00,
2013-03-29 05:23:00,46.0,-99.9,-100.00,NNE,22,4.0,-999.0,111,0.00,,,-99.99,,2013-03-29 10:23:00,
2013-03-29 05:33:00,46.0,-99.9,-100.00,NNE,22,4.0,-999.0,111,0.00,,,-99.99,,2013-03-29 10:33:00,
2013-03-29 05:43:00,46.0,-99.9,-100.00,NNE,22,4.0,-999.0,111,0.00,,,-99.99,,2013-03-29 10:43:00,
2013-03-29 06:24:00,45.0,-99.9,-100.00,NNE,20,5.0,-999.0,114,0.00,,,-99.99,,2013-03-29 11:24:00,
2013-03-29 06:33:00,45.0,-99.9,-100.00,NNE,20,5.0,-999.0,114,0.00,,,-99.99,,2013-03-29 11:33:00,
2013-03-29 06:43:00,45.0,-99.9,-100.00,NNE,20,5.0,-999.0,114,0.00,,,-99.99,,2013-03-29 11:43:00,
2013-03-29 07:22:00,46.0,-99.9,-100.00,North,1,5.0,-999.0,118,0.00,,,-99.99,,2013-03-29 12:22:00,
2013-03-29 07:33:00,46.0,-99.9,-100.00,North,1,5.0,-999.0,118,0.00,,,-99.99,,2013-03-29 12:33:00,
2013-03-29 07:43:00,46.0,-99.9,-100.00,North,1,5.0,-999.0,118,0.00,,,-99.99,,2013-03-29 12:43:00,
2013-03-29 08:23:00,47.0,-99.9,-100.00,NNE,20,4.0,-999.0,117,0.00,,,-99.99,,2013-03-29 13:23:00,
2013-03-29 08:33:00,47.0,-99.9,-100.00,NNE,20,4.0,-999.0,117,0.00,,,-99.99,,2013-03-29 13:33:00,
2013-03-29 08:43:00,47.0,-99.9,-100.00,NNE,20,4.0,-999.0,117,0.00,,,-99.99,,2013-03-29 13:43:00,
2013-03-29 09:22:00,54.0,54.0,-100.00,NNE,27,4.0,-999.0,99,0.00,,,-99.99,,2013-03-29 14:22:00,
2013-03-29 09:32:00,54.0,54.0,-100.00,NNE,27,4.0,-999.0,99,0.00,,,-99.99,,2013-03-29 14:32:00,
2013-03-29 09:42:00,54.0,54.0,-100.00,NNE,27,4.0,-999.0,99,0.00,,,-99.99,,2013-03-29 14:42:00,
2013-03-29 10:22:00,59.0,49.0,-100.00,ENE,69,3.0,-999.0,69,0.00,,,-99.99,,2013-03-29 15:22:00,
2013-03-29 10:33:00,59.0,49.0,-100.00,ENE,69,3.0,-999.0,69,0.00,,,-99.99,,2013-03-29 15:33:00,
2013-03-29 10:43:00,59.0,49.0,-100.00,ENE,69,3.0,-999.0,69,0.00,,,-99.99,,2013-03-29 15:43:00,
2013-03-29 11:23:00,59.0,50.0,-100.00,SSE,152,7.0,-999.0,73,0.00,,,-99.99,,2013-03-29 16:23:00,
2013-03-29 11:33:00,59.0,50.0,-100.00,SSE,152,7.0,-999.0,73,0.00,,,-99.99,,2013-03-29 16:33:00,
2013-03-29 11:42:00,59.0,50.0,-100.00,SSE,152,7.0,-999.0,73,0.00,,,-99.99,,2013-03-29 16:42:00,
2013-03-29 12:22:00,58.0,52.0,-100.00,SSE,152,9.0,-999.0,78,0.00,,,-99.99,,2013-03-29 17:22:00,
2013-03-29 12:33:00,58.0,52.0,-100.00,SSE,152,9.0,-999.0,78,0.00,,,-99.99,,2013-03-29 17:33:00,
2013-03-29 12:43:00,58.0,52.0,-100.00,SSE,152,9.0,-999.0,78,0.00,,,-99.99,,2013-03-29 17:43:00,
2013-03-29 13:23:00,59.0,50.0,-100.00,SSE,156,7.0,-999.0,72,0.00,,,-99.99,,2013-03-29 18:23:00,
2013-03-29 13:32:00,59.0,50.0,-100.00,SSE,156,7.0,-999.0,72,0.00,,,-99.99,,2013-03-29 18:32:00,
2013-03-29 13:42:00,59.0,50.0,-100.00,SSE,156,7.0,-999.0,72,0.00,,,-99.99,,2013-03-29 18:42:00,
2013-03-29 14:23:00,60.0,51.0,-100.00,SSE,167,7.0,-999.0,70,0.00,,,-99.99,,2013-03-29 19:23:00,
2013-03-29 14:32:00,60.0,51.0,-100.00,SSE,167,7.0,-999.0,70,0.00,,,-99.99,,2013-03-29 19:32:00,
2013-03-29 14:42:00,60.0,51.0,-100.00,SSE,167,7.0,-999.0,70,0.00,,,-99.99,,2013-03-29 19:42:00,
2013-03-29 15:22:00,61.0,52.0,-100.00,SSE,158,7.0,-999.0,72,0.00,,,-99.99,,2013-03-29 20:22:00,
2013-03-29 15:33:00,61.0,52.0,-100.00,SSE,158,7.0,-999.0,72,0.00,,,-99.99,,2013-03-29 20:33:00,
2013-03-29 15:42:00,61.0,52.0,-100.00,SSE,158,7.0,-999.0,72,0.00,,,-99.99,,2013-03-29 20:42:00,
2013-03-29 16:22:00,61.0,53.0,-100.00,SSE,160,7.0,-999.0,74,0.00,,,-99.99,,2013-03-29 21:22:00,
2013-03-29 16:33:00,61.0,53.0,-100.00,SSE,160,7.0,-999.0,74,0.00,,,-99.99,,2013-03-29 21:33:00,
2013-03-29 16:42:00,61.0,53.0,-100.00,SSE,160,7.0,-999.0,74,0.00,,,-99.99,,2013-03-29 21:42:00,
2013-03-29 17:23:00,62.0,56.0,-100.00,SSE,154,7.0,-999.0,79,0.00,,,-99.99,,2013-03-29 22:23:00,
2013-03-29 17:33:00,62.0,56.0,-100.00,SSE,154,7.0,-999.0,79,0.00,,,-99.99,,2013-03-29 22:33:00,
2013-03-29 17:42:00,62.0,56.0,-100.00,SSE,154,7.0,-999.0,79,0.00,,,-99.99,,2013-03-29 22:42:00,
2013-03-29 18:22:00,62.0,57.0,-100.00,SSE,157,7.0,-999.0,84,0.00,,,-99.99,,2013-03-29 23:22:00,
2013-03-29 18:32:00,62.0,57.0,-100.00,SSE,157,7.0,-999.0,84,0.00,,,-99.99,,2013-03-29 23:32:00,
2013-03-29 18:42:00,62.0,57.0,-100.00,SSE,157,7.0,-999.0,84,0.00,,,-99.99,,2013-03-29 23:42:00,
2013-03-29 19:22:00,63.0,58.0,-100.00,SE,145,7.0,-999.0,85,0.00,,,-99.99,,2013-03-30 00:22:00,
2013-03-29 19:32:00,63.0,58.0,-100.00,SE,145,7.0,-999.0,85,0.00,,,-99.99,,2013-03-30 00:32:00,
2013-03-29 19:42:00,63.0,58.0,-100.00,SE,145,7.0,-999.0,85,0.00,,,-99.99,,2013-03-30 00:42:00,
2013-03-29 20:22:00,63.0,59.0,-100.00,SSE,148,6.0,-999.0,86,0.00,,,-99.99,,2013-03-30 01:22:00,
2013-03-29 20:33:00,63.0,59.0,-100.00,SSE,148,6.0,-999.0,86,0.00,,,-99.99,,2013-03-30 01:33:00,
2013-03-29 20:43:00,63.0,59.0,-100.00,SSE,148,6.0,-999.0,86,0.00,,,-99.99,,2013-03-30 01:43:00,
2013-03-29 21:22:00,63.0,60.0,-100.00,SSE,155,8.0,-999.0,90,0.00,,,-99.99,,2013-03-30 02:22:00,
2013-03-29 21:32:00,63.0,60.0,-100.00,SSE,155,8.0,-999.0,90,0.00,,,-99.99,,2013-03-30 02:32:00,
2013-03-29 21:42:00,63.0,60.0,-100.00,SSE,155,8.0,-999.0,90,0.00,,,-99.99,,2013-03-30 02:42:00,
2013-03-29 22:22:00,63.0,61.0,-100.00,South,170,9.0,-999.0,93,0.00,,,-99.99,,2013-03-30 03:22:00,
2013-03-29 22:33:00,63.0,61.0,-100.00,South,170,9.0,-999.0,93,0.00,,,-99.99,,2013-03-30 03:33:00,
2013-03-29 22:43:00,63.0,61.0,-100.00,South,170,9.0,-999.0,93,0.00,,,-99.99,,2013-03-30 03:43:00,
2013-03-29 23:23:00,63.0,60.0,-100.00,South,179,7.0,-999.0,93,0.00,,,-99.99,,2013-03-30 04:23:00,
2013-03-29 23:32:00,63.0,60.0,-100.00,South,179,7.0,-999.0,93,0.00,,,-99.99,,2013-03-30 04:32:00,
2013-03-29 23:43:00,63.0,60.0,-100.00,South,179,7.0,-999.0,93,0.00,,,-99.99,,2013-03-30 04:43:00,